Flag Weather past 2 weeks in Lexington, North Carolina, U.S.A.

Now
42 °F

Clear.


Feels Like: 42 °F
Forecast: 38 / 59 °F
Wind: No wind

Location: Davidson County Airport

Current Time: Oct 31, 2014 at 6:59:15 AM

Latest Report: Oct 31, 2014 at 6:15 AM


Visibility: 10 mi

Pressure: 29.96 "Hg

Humidity: 84%

Dew point: 38 °F

Location of LexingtonLocation

Historic Weather in Lexington — Graph

°F

Lexington temperature yesterday

Maximum temperature yesterday: 65 °F (at 4:15 PM)
Minimum temperature yesterday: 42 °F (at 11:15 PM)
Average temperature yesterday: 52 °F

Past Weeks' High & Low Weather Summary

 TemperatureHumidityPressure
High83 °F (Oct 28, 3:15 PM)99% (Oct 17, 3:55 AM)30.15 "Hg (Oct 17, 3:55 AM)
Low35 °F (Oct 25, 6:55 AM)18% (Oct 26, 4:35 PM)29.78 "Hg (Oct 16, 5:15 AM)
Average56 °F70%29.99 "Hg
* Reported Oct 16 5:15 AM — Oct 31 5:55 AM, Lexington, Weather by CustomWeather, © 2014

Note: Actual official high and low records may vary slightly from our data, if they occured in-between our weather recording intervals... More about our weather records

Advertising

Lexington weather history for previous 24 hours

 ConditionsComfort  
Time TempWeatherWind HumidityBarometerVisibility
5:55 AM
Oct 31
42 °FClear.5 mph83%29.96 "Hg10 mi
5:35 AM43 °FClear.5 mph83%29.96 "Hg10 mi
5:15 AM43 °FClear.3 mph84%29.96 "Hg10 mi
4:55 AM44 °FClear.5 mph82%29.96 "Hg10 mi
4:35 AM44 °FClear.5 mph83%29.96 "Hg10 mi
4:15 AM44 °FClear.5 mph82%29.97 "Hg10 mi
3:55 AM44 °FClear.3 mph83%29.97 "Hg10 mi
3:35 AM45 °FClear.3 mph81%29.97 "Hg10 mi
3:15 AM45 °FClear.3 mph81%29.97 "Hg10 mi
2:55 AM45 °FClear.3 mph81%29.98 "Hg10 mi
2:15 AM45 °FClear.3 mph80%29.98 "Hg10 mi
1:55 AM45 °FClear.3 mph79%29.98 "Hg10 mi
1:35 AM46 °FClear.5 mph76%29.98 "Hg10 mi
1:15 AM45 °FClear.3 mph79%29.98 "Hg10 mi
12:55 AM45 °FClear.No wind81%29.99 "Hg10 mi
12:35 AM44 °FClear.3 mph86%29.99 "Hg10 mi
12:15 AM42 °FClear.No wind93%29.98 "Hg10 mi
11:55 PM
Oct 30
43 °FClear.No wind92%29.99 "Hg10 mi
11:15 PM42 °FClear.No wind95%29.99 "Hg10 mi
10:55 PM42 °FClear.No wind94%29.99 "Hg10 mi
10:35 PM43 °FClear.No wind94%29.99 "Hg10 mi
10:15 PM43 °FClear.No wind93%29.99 "Hg10 mi
9:55 PM44 °FClear.No wind93%29.99 "Hg10 mi
9:35 PM45 °FClear.No wind90%29.99 "Hg10 mi
9:15 PM45 °FClear.No wind87%29.99 "Hg10 mi
8:55 PM46 °FClear.No wind87%29.99 "Hg10 mi
8:15 PM48 °FClear.No wind77%29.99 "Hg10 mi
7:55 PM49 °FClear.No wind69%29.99 "Hg10 mi
7:35 PM51 °FClear.No wind70%29.99 "Hg10 mi
7:15 PM52 °FSunny.No wind65%29.99 "Hg10 mi
6:55 PM54 °FSunny.No wind55%29.99 "Hg10 mi
6:35 PM56 °FSunny.No wind53%29.98 "Hg10 mi
6:15 PM57 °FSunny.No wind49%29.98 "Hg10 mi
5:55 PM59 °FSunny.No wind45%29.98 "Hg10 mi
5:35 PM61 °FSunny.No wind43%29.97 "Hg10 mi
5:15 PM64 °FSunny.No wind34%29.97 "Hg10 mi
4:55 PM64 °FSunny.No wind34%29.98 "Hg10 mi
4:15 PM65 °FSunny.No wind33%29.97 "Hg10 mi
3:55 PM64 °FSunny.No wind34%29.97 "Hg10 mi
3:15 PM65 °FSunny.No wind34%29.98 "Hg10 mi
2:55 PM65 °FSunny.No wind34%29.99 "Hg10 mi
2:15 PM63 °FSunny.No wind37%30.00 "Hg10 mi
1:55 PM63 °FSunny.No wind39%30.01 "Hg10 mi
1:15 PM62 °FSunny.3 mph39%30.03 "Hg10 mi
12:55 PM62 °FSunny.6 mph39%30.05 "Hg10 mi
12:35 PM61 °FSunny.No wind41%30.06 "Hg10 mi
12:15 PM61 °FSunny.8 mph42%30.06 "Hg10 mi
11:55 AM61 °FSunny.3 mph45%30.06 "Hg10 mi
11:15 AM60 °FSunny.No wind48%30.08 "Hg10 mi
10:55 AM58 °FSunny.3 mph54%30.08 "Hg10 mi
10:15 AM56 °FSunny.3 mph64%30.08 "Hg10 mi
9:55 AM54 °FSunny.No wind73%30.08 "Hg10 mi
9:35 AM52 °FSunny.No wind80%30.08 "Hg10 mi
9:15 AM49 °FSunny.No wind90%30.08 "Hg10 mi
8:55 AM47 °FSunny.No wind98%30.07 "Hg10 mi
8:35 AM45 °FClear.No wind99%30.07 "Hg10 mi
8:15 AM43 °FClear.No wind98%30.07 "Hg10 mi
7:55 AM42 °FClear.No wind98%30.06 "Hg7 mi
7:15 AM44 °FClear.No wind98%30.05 "Hg10 mi
6:55 AM43 °FFog.No wind98%30.05 "Hg5 mi
6:35 AM45 °FClear.No wind97%30.05 "Hg10 mi
6:15 AM44 °FClear.No wind98%30.04 "Hg7 mi
Weather by CustomWeather, © 2014

See weather overviewHow to use our weather pages